Wind_Speed
2 1 1 1 1 2 1 2 4 5 5 4 3 2 3 4 5 4 5 5 5 4 5 6 6 6 7 7 7 6 6 6 6 6 6 7 7 7 8 9 9 9 9 9 10 10 10 10 10
1 1 1 1 2 2 2 3 3 3 3 3 2 3 4 4 5 4 5 5 5 6 6 5 6 6 7 8 7 7 7 7 6 7 7 7 7 7 8 9 9 9 10 10 10 11 10 10 10
1 1 1 2 2 2 2 3 3 3 3 3 3 3 5 5 5 5 6 6 6 6 6 5 6 7 7 7 8 7 7 6 7 7 7 7 7 6 7 8 8 9 9 9 10 10 10 10 10
1 1 2 3 3 4 4 3 3 3 4 4 4 4 5 6 5 6 6 6 6 6 6 6 7 7 7 7 7 7 6 5 5 6 6 6 6 6 7 7 8 8 8 9 9 10 10 10 10
2 2 3 4 4 4 5 4 4 4 4 4 4 5 5 5 6 6 7 7 7 7 7 6 6 6 6 7 6 5 4 5 5 5 5 6 6 6 7 7 6 7 8 8 9 9 9 9 9
2 3 4 4 4 4 4 5 5 4 5 5 5 5 6 6 6 6 7 7 7 7 7 6 7 6 7 6 5 4 5 4 5 5 5 5 6 6 6 7 6 6 7 8 8 9 9 9 9
3 3 4 4 4 4 4 5 6 6 6 6 6 6 6 7 7 7 8 8 8 7 7 6 6 6 5 5 5 5 5 4 5 5 5 6 6 6 5 6 6 5 6 7 8 8 8 8 9
4 4 4 4 5 4 5 5 6 6 7 7 7 7 7 7 8 8 8 8 8 7 6 5 5 5 5 5 5 5 5 5 5 5 5 5 5 5 5 6 5 5 5 6 7 7 7 7 7
4 4 5 5 5 5 5 6 6 7 7 8 8 7 8 8 9 9 9 8 8 7 6 5 5 5 5 5 5 5 5 4 5 5 4 5 5 5 5 5 5 5 5 5 5 6 7 7 7
4 5 5 5 5 6 6 6 7 7 8 8 8 8 8 8 9 9 8 8 7 7 6 5 5 5 5 5 5 5 4 4 4 4 4 4 4 4 4 4 4 4 4 4 4 6 6 6 6
5 5 6 6 5 6 6 6 7 7 8 8 8 8 8 8 8 8 7 7 7 6 6 6 5 4 4 4 4 4 4 4 3 3 3 3 3 3 4 3 4 4 3 4 4 5 5 5 5
5 5 6 6 6 6 6 7 7 8 8 8 7 7 8 8 8 7 7 6 7 6 6 6 5 4 3 4 3 3 4 3 3 2 3 3 2 2 2 3 3 3 3 3 4 4 5 5 5
6 6 6 7 6 6 7 7 8 8 8 7 7 7 7 8 8 7 6 5 6 7 7 5 4 3 3 3 3 3 3 3 2 2 2 2 2 2 2 2 2 2 3 3 4 3 3 4 4
6 6 6 7 7 7 7 7 7 7 7 7 7 7 8 8 7 6 6 6 7 7 6 5 4 3 2 3 3 2 2 2 2 3 3 3 2 2 2 2 1 2 2 3 3 2 2 3 3
6 7 7 7 7 7 8 7 7 7 7 7 8 8 8 8 7 7 6 7 7 7 6 5 4 3 2 3 3 2 2 2 2 3 3 3 3 3 2 2 2 1 2 3 2 2 2 2 2
7 7 7 7 7 8 8 8 8 7 7 7 8 8 7 8 7 7 7 7 7 6 6 5 4 3 2 2 2 2 2 2 2 2 3 3 2 2 1 1 2 2 2 2 2 1 1 1 2
7 7 7 8 7 7 7 7 7 7 7 7 7 8 7 7 7 7 7 6 6 6 5 4 4 3 2 2 2 2 2 2 2 2 3 2 2 1 1 1 1 2 3 3 2 2 1 1 1
7 7 7 7 7 7 7 7 7 7 6 7 7 7 8 7 6 6 6 6 5 5 4 4 3 3 2 2 2 2 2 1 2 2 2 2 1 1 1 1 1 2 3 3 2 2 1 1 1
8 8 8 8 8 7 6 7 6 7 7 6 7 7 7 7 6 6 6 5 4 4 4 4 3 2 2 3 3 2 2 2 2 2 2 2 1 0 0 1 1 2 3 3 2 2 2 1 1
8 8 8 9 8 8 7 7 6 7 6 7 7 7 6 6 6 6 6 5 4 4 4 3 3 2 3 3 3 3 2 2 2 2 2 2 1 0 0 1 2 2 2 2 2 2 2 2 1
9 9 9 9 9 9 8 7 7 7 7 7 7 7 6 6 6 6 6 6 5 5 4 4 3 3 3 4 4 3 2 2 2 2 2 1 1 0 1 1 2 2 2 2 2 1 2 2 2
10 9 10 9 9 9 9 7 6 7 7 7 7 7 6 5 5 6 6 6 6 5 4 4 4 4 4 4 4 3 3 3 2 2 1 1 1 0 1 1 1 2 2 2 2 1 2 2 2
11 10 10 11 10 10 10 9 6 7 7 7 6 7 6 5 5 6 6 6 5 4 5 5 4 4 4 4 4 4 4 3 3 2 2 1 1 1 1 1 2 2 2 2 2 2 1 1 1
11 11 11 12 11 11 10 10 7 6 7 7 7 7 6 6 6 6 6 6 6 5 5 5 5 5 5 5 5 5 4 4 3 3 2 1 1 1 2 1 2 2 2 2 2 2 1 1 1
13 13 13 13 12 11 10 10 7 7 7 7 7 7 7 7 6 6 6 6 7 7 7 7 6 6 6 6 6 5 5 4 4 3 2 2 2 2 2 2 2 1 2 2 2 2 1 1 1
14 13 13 14 13 12 12 11 10 9 8 8 8 8 7 8 8 7 7 7 7 8 8 7 7 7 7 7 6 6 6 5 4 3 3 2 2 2 2 2 2 2 2 2 2 1 1 1 1
15 14 14 14 14 13 12 12 11 11 10 9 9 9 8 8 8 8 8 8 8 8 9 8 8 8 8 8 7 7 7 6 5 5 4 3 3 3 2 2 2 2 2 2 2 2 1 1 1
16 15 16 16 16 15 14 13 12 11 11 11 10 10 9 9 9 9 9 9 9 10 10 10 9 9 9 8 8 7 7 7 7 6 5 4 4 4 4 3 3 3 2 2 2 2 2 2 2
18 17 17 17 17 17 16 15 14 13 13 12 12 11 11 10 9 10 10 10 10 10 11 11 10 10 10 10 9 9 9 8 7 7 6 6 5 5 5 4 4 3 3 3 2 2 2 3 3
20 19 19 19 18 18 18 16 15 14 14 14 14 13 11 11 10 10 11 11 11 11 11 12 12 11 11 11 11 11 10 10 9 8 8 7 6 6 6 5 5 4 4 4 4 4 4 4 4
Wind_Direction
96 95 52 77 57 34 37 28 37 40 41 41 34 19 358 348 345 333 329 325 317 308 309 305 307 309 312 309 297 298 294 290 281 279 280 279 281 276 262 250 247 244 244 246 247 245 244 241 239
61 60 43 23 344 355 11 23 32 27 19 20 11 350 343 341 340 338 331 326 316 312 309 302 306 308 308 308 298 293 293 282 274 276 277 280 281 274 261 257 253 247 245 247 245 244 245 245 242
355 359 16 340 329 324 333 357 18 9 356 350 337 334 336 335 334 335 334 323 315 309 309 303 304 306 304 303 301 294 288 282 274 274 277 277 277 271 260 254 252 250 248 248 244 245 247 246 242
349 341 327 316 321 326 335 349 1 8 352 342 335 337 338 337 334 330 329 321 317 313 310 307 306 308 307 303 299 297 289 284 282 278 277 275 277 277 264 256 253 252 253 253 248 249 247 248 244
8 338 322 316 316 324 336 334 336 348 342 336 338 339 338 337 336 332 326 323 318 316 317 311 311 314 314 312 306 296 288 287 284 284 278 273 274 276 269 262 261 258 257 255 253 254 248 247 245
345 325 314 313 319 327 338 338 335 336 332 330 330 333 330 329 330 331 328 325 321 319 318 315 319 319 315 314 308 305 298 291 286 287 286 275 268 270 272 265 264 261 260 258 256 255 252 245 246
326 316 306 306 313 322 331 332 337 332 326 328 326 324 322 322 323 328 327 321 320 319 317 317 320 324 325 324 318 312 302 298 290 284 282 274 264 268 273 269 267 261 262 259 258 251 250 244 244
309 311 302 301 303 315 320 326 330 328 325 324 324 322 320 325 326 325 324 324 320 318 317 313 312 318 327 321 315 311 301 298 295 287 283 273 264 262 262 260 260 255 259 262 255 249 246 243 241
312 310 302 303 308 320 321 323 322 321 321 321 321 322 324 326 326 325 322 322 322 321 318 312 312 315 316 313 312 310 306 298 297 294 291 283 269 262 259 251 257 258 260 259 246 245 244 239 234
306 307 306 305 308 317 318 318 319 316 318 317 315 314 317 319 323 324 320 317 318 315 308 304 305 306 310 312 313 313 312 309 308 303 295 289 275 263 259 251 253 255 256 250 235 230 228 228 231
300 305 309 307 310 318 320 317 318 316 316 314 312 311 313 314 319 323 318 314 314 314 308 299 300 300 306 310 312 316 318 319 319 316 306 298 283 267 264 254 250 249 243 231 225 223 218 223 226
298 302 309 312 311 315 319 320 317 316 317 315 312 311 312 314 317 319 322 319 318 317 311 304 300 304 314 314 317 324 325 327 331 326 316 307 302 273 281 275 253 245 242 229 220 220 216 222 221
294 300 303 313 317 318 320 318 315 316 315 312 309 311 313 315 314 314 318 321 317 313 309 308 304 307 311 316 322 328 335 338 341 327 324 328 317 293 295 283 257 247 243 234 223 220 210 221 221
291 298 303 305 313 317 316 315 312 312 313 313 310 312 312 313 315 312 311 316 316 309 309 314 309 307 316 329 332 339 349 354 350 339 347 340 318 299 291 275 266 246 235 229 218 214 199 201 204
294 298 297 297 302 308 313 317 313 311 309 311 312 313 311 310 312 308 307 309 311 309 305 306 312 310 317 320 321 329 334 331 338 343 341 333 319 305 284 261 236 228 205 206 202 216 197 197 190
297 301 298 301 305 308 313 319 316 313 310 312 313 310 308 306 307 308 309 310 308 305 302 301 308 310 308 308 298 304 310 312 316 333 335 330 323 314 296 245 219 208 183 189 188 195 179 172 191
294 299 299 302 306 306 310 316 314 316 315 312 313 310 305 303 305 308 310 310 309 308 303 290 297 298 290 296 296 298 304 304 309 325 327 329 324 306 294 238 217 191 176 167 158 157 155 160 187
288 294 301 307 311 308 311 316 316 317 320 316 313 311 309 305 305 306 308 308 307 310 307 291 293 289 276 280 288 291 297 311 314 329 326 324 322 313 268 230 204 180 171 166 170 164 163 161 196
289 297 306 310 313 313 316 319 319 318 321 323 321 312 304 306 303 302 302 308 306 311 308 292 285 280 271 274 274 281 301 316 317 331 330 326 330 344 190 165 166 165 174 173 179 172 169 166 174
288 296 301 305 310 313 318 316 314 316 322 327 328 322 314 311 301 299 301 301 301 306 308 294 287 274 268 273 273 271 290 308 315 329 336 324 333 7 138 141 170 173 166 163 160 164 177 185 180
281 291 297 301 306 310 314 319 316 314 319 327 332 331 322 312 304 295 297 296 293 297 296 284 289 279 265 264 274 274 281 294 307 312 328 340 354 132 160 161 176 169 164 164 154 150 173 176 173
279 286 290 293 297 305 309 313 318 313 317 324 330 332 324 313 305 297 293 287 283 282 283 280 284 281 273 267 270 263 269 281 290 301 311 325 352 205 174 166 171 173 173 171 168 147 142 166 186
273 281 283 285 292 299 305 306 315 309 316 324 328 327 321 316 309 300 292 284 277 275 275 278 278 273 268 262 256 257 260 265 266 279 295 299 274 220 189 169 173 172 177 181 179 172 172 188 208
266 273 277 281 288 295 300 303 315 311 314 319 323 323 319 313 309 298 288 275 267 268 270 272 271 272 268 260 255 256 261 264 263 259 255 255 241 206 183 159 156 173 190 193 191 189 210 230 238
263 268 272 277 282 291 290 295 310 307 312 315 319 319 313 305 304 299 284 275 267 264 266 270 268 264 265 264 257 254 254 254 256 255 241 239 233 210 199 190 176 177 184 187 182 186 198 210 258
261 266 270 275 280 282 283 289 297 304 306 311 315 318 312 303 297 290 285 279 266 260 263 267 264 259 259 260 255 252 248 242 243 247 240 234 226 215 210 201 196 190 171 167 166 186 207 223 255
258 261 267 270 274 277 280 284 286 293 297 301 306 313 312 303 293 285 283 279 267 259 261 262 261 259 256 255 253 252 247 240 237 238 235 228 222 213 210 212 209 197 193 170 183 211 236 258 250
254 258 261 265 271 275 277 278 282 285 291 297 301 306 306 303 294 283 279 278 266 257 258 259 257 258 256 254 250 249 248 242 238 236 232 228 226 222 222 226 221 218 215 218 240 229 256 282 268
251 253 257 262 266 270 274 277 279 282 285 289 295 303 301 296 291 283 278 273 267 261 258 256 256 255 253 249 248 246 244 243 238 235 233 228 227 231 234 232 236 234 222 232 242 246 262 267 262
251 253 256 259 263 267 272 273 275 277 279 284 290 296 297 293 288 281 276 273 268 265 260 257 255 254 252 248 247 246 244 241 239 236 230 226 228 235 236 236 238 239 236 237 247 259 266 265 262
Height
5897 5896 5896 5896 5897 5896 5895 5895 5894 5894 5893 5893 5892 5891 5891 5891 5892 5893 5890 5887 5887 5886 5886 5885 5884 5884 5883 5883 5882 5882 5881 5881 5881 5881 5881 5880 5880 5880 5880 5880 5880 5880 5880 5880 5880 5880 5880 5880 5880
5897 5896 5897 5897 5896 5896 5896 5894 5894 5894 5893 5893 5892 5891 5891 5890 5890 5889 5887 5887 5886 5885 5885 5884 5883 5883 5882 5881 5881 5880 5880 5880 5880 5880 5879 5879 5878 5878 5878 5878 5878 5878 5878 5878 5878 5878 5878 5878 5879
5897 5896 5897 5896 5895 5895 5895 5894 5894 5893 5893 5892 5891 5891 5890 5890 5889 5888 5887 5886 5885 5884 5883 5883 5882 5882 5881 5880 5879 5879 5879 5878 5878 5878 5878 5877 5877 5877 5876 5876 5876 5876 5876 5876 5876 5876 5876 5876 5877
5897 5897 5897 5896 5895 5895 5894 5893 5893 5893 5892 5891 5891 5890 5889 5889 5888 5887 5886 5885 5884 5883 5882 5882 5881 5880 5880 5879 5878 5877 5877 5877 5877 5876 5876 5876 5876 5875 5875 5875 5875 5874 5874 5874 5874 5874 5874 5874 5875
5897 5897 5897 5895 5894 5894 5893 5893 5892 5892 5891 5891 5890 5889 5888 5888 5887 5886 5885 5884 5883 5882 5881 5880 5880 5879 5878 5877 5877 5876 5876 5876 5875 5875 5875 5874 5874 5874 5874 5873 5873 5872 5872 5872 5872 5872 5872 5872 5873
5897 5896 5896 5894 5894 5893 5892 5892 5892 5891 5890 5890 5889 5888 5887 5887 5886 5885 5884 5883 5882 5881 5880 5879 5879 5878 5877 5876 5875 5875 5875 5874 5874 5874 5873 5873 5873 5872 5872 5871 5871 5871 5870 5870 5870 5870 5870 5870 5871
5896 5895 5894 5894 5893 5892 5892 5891 5891 5890 5889 5889 5888 5888 5886 5886 5885 5884 5883 5881 5881 5880 5879 5878 5878 5877 5876 5875 5874 5874 5874 5873 5873 5872 5872 5871 5871 5871 5870 5870 5869 5869 5869 5868 5868 5867 5868 5868 5869
5895 5895 5893 5893 5892 5892 5891 5890 5889 5889 5888 5888 5887 5886 5885 5885 5883 5882 5881 5880 5879 5878 5878 5877 5876 5876 5875 5874 5873 5873 5872 5872 5871 5871 5870 5870 5869 5869 5868 5868 5867 5867 5867 5867 5866 5866 5866 5866 5867
5894 5895 5892 5892 5891 5891 5890 5889 5889 5888 5887 5886 5885 5885 5884 5883 5882 5881 5880 5879 5879 5877 5877 5876 5875 5874 5874 5873 5872 5872 5871 5870 5870 5869 5868 5868 5867 5867 5867 5866 5866 5865 5865 5865 5864 5864 5864 5864 5865
5893 5893 5892 5891 5890 5890 5889 5888 5887 5887 5885 5885 5884 5883 5882 5881 5880 5879 5879 5878 5877 5877 5876 5875 5874 5873 5872 5872 5871 5870 5870 5869 5868 5867 5867 5866 5866 5865 5865 5865 5864 5864 5863 5863 5863 5863 5863 5863 5863
5892 5891 5890 5889 5889 5888 5887 5887 5886 5885 5884 5884 5882 5882 5881 5880 5879 5878 5877 5876 5876 5876 5875 5874 5873 5872 5871 5871 5870 5869 5868 5868 5867 5866 5866 5865 5864 5864 5864 5863 5863 5862 5862 5862 5862 5861 5862 5862 5862
5891 5890 5889 5888 5887 5887 5886 5885 5885 5884 5883 5882 5881 5880 5879 5878 5877 5877 5876 5875 5875 5874 5873 5872 5871 5870 5870 5869 5869 5868 5867 5866 5866 5865 5865 5864 5863 5863 5862 5862 5862 5861 5861 5861 5861 5861 5861 5861 5861
5890 5889 5888 5887 5887 5886 5885 5884 5883 5882 5881 5880 5879 5879 5878 5877 5876 5875 5875 5874 5873 5873 5872 5871 5870 5869 5869 5868 5868 5867 5866 5866 5865 5865 5864 5863 5863 5862 5862 5861 5861 5860 5860 5860 5860 5860 5860 5860 5860
5889 5888 5887 5886 5886 5885 5884 5883 5882 5881 5880 5879 5878 5877 5877 5876 5875 5874 5874 5873 5872 5871 5871 5870 5869 5868 5868 5867 5867 5866 5866 5865 5864 5864 5863 5862 5862 5861 5861 5860 5860 5859 5859 5859 5859 5859 5859 5859 5859
5887 5887 5886 5885 5884 5883 5883 5882 5881 5879 5878 5877 5876 5876 5875 5874 5874 5873 5872 5871 5870 5870 5869 5869 5868 5867 5867 5866 5866 5866 5865 5865 5864 5863 5863 5862 5861 5860 5860 5859 5859 5859 5859 5859 5859 5859 5859 5859 5859
5886 5886 5885 5884 5883 5882 5883 5881 5879 5878 5877 5876 5875 5874 5874 5873 5872 5872 5871 5870 5869 5868 5868 5867 5867 5866 5866 5866 5865 5865 5864 5864 5863 5863 5862 5861 5860 5860 5859 5859 5858 5858 5858 5858 5858 5859 5859 5859 5859
5885 5884 5883 5883 5881 5880 5880 5879 5878 5876 5875 5874 5874 5873 5872 5872 5871 5870 5869 5868 5867 5867 5866 5866 5866 5865 5865 5864 5864 5864 5864 5863 5863 5862 5861 5860 5859 5859 5858 5858 5858 5858 5858 5858 5858 5858 5859 5859 5859
5883 5883 5882 5881 5880 5879 5878 5877 5876 5875 5874 5873 5872 5871 5871 5870 5870 5869 5868 5867 5866 5865 5865 5865 5865 5864 5864 5864 5863 5863 5863 5863 5862 5861 5860 5859 5859 5858 5858 5857 5857 5857 5857 5858 5858 5858 5858 5859 5859
5881 5881 5880 5879 5878 5877 5876 5875 5875 5873 5872 5871 5871 5870 5869 5868 5868 5867 5867 5866 5865 5864 5864 5863 5863 5863 5863 5863 5863 5862 5862 5862 5861 5860 5859 5859 5858 5857 5857 5857 5857 5857 5857 5857 5857 5858 5858 5858 5858
5879 5879 5878 5877 5876 5876 5875 5874 5873 5872 5871 5870 5869 5868 5867 5867 5866 5865 5865 5865 5864 5864 5863 5863 5863 5863 5862 5862 5862 5861 5861 5861 5860 5859 5859 5858 5858 5857 5857 5857 5857 5857 5857 5857 5857 5857 5857 5858 5858
5877 5877 5876 5875 5874 5874 5873 5873 5872 5871 5869 5869 5868 5867 5866 5865 5865 5864 5864 5863 5863 5863 5862 5862 5862 5862 5862 5861 5861 5860 5860 5860 5859 5859 5858 5858 5857 5857 5856 5857 5857 5857 5857 5857 5857 5857 5857 5857 5858
5875 5874 5874 5873 5873 5872 5872 5872 5871 5869 5868 5867 5866 5865 5864 5864 5863 5863 5862 5862 5862 5862 5861 5861 5861 5861 5860 5860 5859 5859 5859 5859 5858 5858 5858 5857 5857 5856 5856 5856 5856 5856 5857 5857 5857 5857 5857 5857 5857
5872 5872 5871 5871 5870 5870 5870 5869 5870 5868 5867 5866 5865 5864 5863 5862 5861 5861 5861 5860 5860 5860 5860 5860 5860 5860 5859 5859 5859 5858 5858 5858 5858 5857 5857 5857 5856 5856 5856 5856 5856 5856 5856 5857 5857 5857 5857 5857 5857
5869 5869 5869 5868 5868 5868 5868 5867 5868 5866 5865 5864 5863 5862 5861 5860 5860 5859 5859 5859 5859 5859 5859 5859 5859 5858 5858 5858 5858 5857 5857 5857 5857 5856 5856 5856 5856 5856 5855 5855 5855 5855 5856 5856 5856 5856 5856 5856 5856
5866 5867 5867 5866 5866 5866 5865 5864 5865 5864 5863 5862 5861 5860 5859 5859 5858 5858 5857 5857 5857 5858 5858 5858 5857 5857 5857 5857 5856 5856 5856 5856 5856 5855 5855 5855 5855 5855 5855 5855 5855 5855 5855 5855 5856 5856 5856 5856 5856
5863 5864 5864 5864 5863 5863 5862 5862 5863 5861 5860 5860 5859 5858 5858 5857 5857 5856 5856 5855 5855 5856 5856 5856 5856 5855 5855 5855 5855 5855 5854 5855 5855 5855 5855 5854 5854 5855 5854 5854 5854 5855 5855 5855 5855 5855 5855 5855 5855
5859 5859 5860 5860 5859 5859 5859 5859 5859 5858 5858 5857 5857 5856 5856 5855 5854 5854 5854 5853 5853 5853 5854 5854 5854 5853 5853 5853 5853 5853 5853 5853 5853 5853 5853 5853 5854 5854 5854 5854 5854 5854 5854 5854 5854 5855 5855 5855 5854
5855 5855 5855 5855 5855 5855 5856 5856 5856 5855 5855 5854 5854 5854 5853 5853 5852 5851 5851 5851 5851 5851 5851 5851 5851 5851 5851 5851 5851 5851 5851 5851 5851 5852 5852 5852 5853 5853 5853 5853 5853 5853 5854 5854 5854 5854 5854 5854 5854
5850 5850 5851 5851 5851 5852 5852 5855 5854 5853 5852 5851 5851 5851 5851 5850 5849 5849 5848 5848 5848 5848 5848 5848 5848 5849 5849 5849 5849 5849 5850 5850 5850 5850 5850 5851 5851 5852 5852 5852 5852 5852 5852 5853 5853 5853 5853 5853 5853
5844 5845 5846 5847 5847 5847 5848 5852 5849 5850 5849 5848 5848 5848 5847 5847 5846 5846 5845 5845 5845 5845 5845 5845 5846 5846 5846 5846 5847 5847 5847 5847 5848 5848 5849 5849 5850 5850 5850 5851 5851 5851 5851 5851 5852 5852 5852 5852 5852